Huron, SD

8:05 AM CST on November 22, 2017 (GMT -0600)
Huron Regional

Weather History for KHON - July, 2013

Change the Weather History Date:

Tuesday, July 16, 2013

  Actual Average Record
Temperature  
Mean Temperature 78 °F 74 °F  
Max Temperature 87 °F 86 °F 109 °F (1936)
Min Temperature 69 °F 62 °F 42 °F (1976)
Degree Days  
Heating Degree Days 0 0  
Month to date heating degree days 0 0  
Since 1 June heating degree days 66 51  
Since 1 July heating degree days 0 0  
Cooling Degree Days 13 9  
Month to date cooling degree days 173 138  
Year to date cooling degree days 346 304  
Since 1 June cooling degree days 308 271  
Growing Degree Days 28 (Base 50)    
Moisture  
Dew Point 66 °F    
Average Humidity 73    
Maximum Humidity 97    
Minimum Humidity 48    
Precipitation  
Precipitation 0.00 in 0.09 in 1.44 in (1927)
Month to date precipitation 1.71 1.41  
Year to date precipitation 15.76 13.32  
Snow  
Snow 0.00 in 0.00 in 0.00 in ()
Month to date snowfall 0.0 0.0  
Since 1 June snowfall 0.0 0.0  
Since 1 July snowfall 0.0 0.0  
Snow Depth 0.00 in    
Sea Level Pressure  
Sea Level Pressure 30.11 in    
Wind  
Wind Speed 10 mph (South)    
Max Wind Speed 21 mph    
Max Gust Speed 29 mph    
Visibility 9 miles    
Events      
T = Trace of Precipitation, MM = Missing Value Source: NWS Daily Summary

Daily Weather History Graph

Daily Weather History Graph

Search for Another Location

Airport or City:

Trip Planner

Search our weather history database for the weather conditions in past years. The results will help you decide how hot, cold, wet, or windy it might be!

Date:

Astronomy

Jul. 16, 2013 Rise Set
Actual Time 6:03 AM CDT 9:13 PM CDT
Civil Twilight 5:28 AM CDT 9:48 PM CDT
Nautical Twilight 4:43 AM CDT 10:33 PM CDT
Astronomical Twilight 3:47 AM CDT 11:28 PM CDT
Moon 2:51 PM CDT (7/16) 12:41 AM CDT (7/16)
Length of Visible Light 16h 20m
Length of Day
15h 09m
First Quarter, 56% of the Moon is Illuminated
Jul 16
First Quarter
Jul 22
Full
Jul 29
Last Quarter
Aug 6
New
Aug 14
First Quarter

Hourly Weather History & Observations

Time (CDT) Temp. Heat Index Dew Point Humidity Pressure Visibility Wind Dir Wind Speed Gust Speed Precip Events Conditions
12:55 AM 71.1 °F - 66.0 °F 84% 30.07 in 10.0 mi SSE 9.2 mph - N/A   Clear
1:55 AM 71.1 °F - 66.0 °F 84% 30.07 in 9.0 mi SSE 8.1 mph - N/A   Clear
2:55 AM 71.1 °F - 66.9 °F 87% 30.07 in 8.0 mi SSE 6.9 mph - N/A   Clear
3:55 AM 70.0 °F - 66.9 °F 90% 30.07 in 7.0 mi South 5.8 mph - N/A   Clear
4:55 AM 69.1 °F - 68.0 °F 96% 30.08 in 6.0 mi South 4.6 mph - N/A   Clear
5:55 AM 69.1 °F - 66.9 °F 93% 30.08 in 6.0 mi South 5.8 mph - N/A   Clear
6:55 AM 69.1 °F - 66.9 °F 93% 30.10 in 5.0 mi South 6.9 mph - N/A   Clear
7:55 AM 72.0 °F - 66.9 °F 84% 30.12 in 7.0 mi South 6.9 mph - N/A   Clear
8:55 AM 75.0 °F - 66.0 °F 73% 30.12 in 10.0 mi South 9.2 mph - N/A   Clear
9:55 AM 78.1 °F - 66.0 °F 66% 30.13 in 10.0 mi SSW 11.5 mph - N/A   Clear
10:55 AM 81.0 °F 83.0 °F 66.0 °F 60% 30.13 in 10.0 mi South 10.4 mph 20.7 mph N/A   Clear
11:55 AM 82.9 °F 85.0 °F 66.0 °F 56% 30.14 in 10.0 mi South 12.7 mph 19.6 mph N/A   Clear
12:55 PM 82.9 °F 84.6 °F 64.9 °F 54% 30.14 in 10.0 mi SSW 13.8 mph 23.0 mph N/A   Clear
1:55 PM 84.9 °F 87.1 °F 66.0 °F 53% 30.13 in 10.0 mi South 13.8 mph 20.7 mph N/A   Clear
2:55 PM 84.9 °F 87.1 °F 66.0 °F 53% 30.12 in 10.0 mi SSW 15.0 mph 25.3 mph N/A   Clear
3:55 PM 86.0 °F 87.6 °F 64.9 °F 49% 30.12 in 10.0 mi SSW 13.8 mph 23.0 mph N/A   Partly Cloudy
4:55 PM 84.9 °F 87.1 °F 66.0 °F 53% 30.12 in 10.0 mi South 12.7 mph 20.7 mph N/A   Scattered Clouds
5:55 PM 86.0 °F 88.8 °F 66.9 °F 53% 30.11 in 10.0 mi South 13.8 mph 19.6 mph N/A   Mostly Cloudy
6:55 PM 84.9 °F 87.1 °F 66.0 °F 53% 30.11 in 10.0 mi SSW 10.4 mph 24.2 mph N/A   Clear
7:55 PM 82.9 °F 85.0 °F 66.0 °F 56% 30.11 in 10.0 mi South 11.5 mph 19.6 mph N/A   Clear
8:55 PM 81.0 °F 82.7 °F 64.9 °F 58% 30.12 in 10.0 mi South 8.1 mph - N/A   Clear
9:55 PM 79.0 °F - 66.0 °F 64% 30.14 in 10.0 mi South 5.8 mph - N/A   Clear
10:55 PM 77.0 °F - 66.9 °F 71% 30.14 in 10.0 mi South 8.1 mph - N/A   Clear
11:55 PM 75.0 °F - 68.0 °F 79% 30.15 in 10.0 mi South 9.2 mph - N/A   Clear